{"data":{"norad_id":68892,"epoch":"2026-05-24T23:56:48.057216Z","epoch_age_seconds":88976,"freshness":"FRESH","line1":"1 68892U 26095AE  26144.99777844  .00041165  00000+0  10733-2 0  9999","line2":"2 68892  51.8825 354.3759 0001680 196.0854 164.0080 15.38433265  4168","mean_motion":15.38433265,"eccentricity":0.000168,"inclination_deg":51.8825,"raan_deg":354.3759,"arg_perigee_deg":196.0854,"mean_anomaly_deg":164.008,"bstar":0.0010733,"rev_number":416,"period_min":93.601720189013,"perigee_km":449.59447252687,"apogee_km":451.88897577819,"semimajor_km":6828.8787241525,"source":"CELESTRAK","updated_at":"2026-05-25T13:38:08.651690Z"}}